Home > Time Zones > World Clock > Weather > Italy > Milan > Past weeks

Flag for Italy Weather past 2 weeks in Milan, Italy

Now
68 °F

Clear.


Feels Like: 68 °F
Forecast: 65 / 81 °F
Wind: 5 mph from East

Location: Milan / Linate

Current Time: Aug 28, 2014 at 2:02:20 AM

Latest Report: Aug 28, 2014 at 1:20 AM


Visibility: 10 mi

Pressure: 29.92 "Hg

Humidity: 88%

Dew point: 64 °F

Location of MilanLocation

Historic Weather in Milan — Graph

°F

Milan temperature yesterday

Maximum temperature yesterday: 82 °F (at 3:50 PM)
Minimum temperature yesterday: 64 °F (at 6:50 AM)
Average temperature yesterday: 72 °F

Past Weeks' High & Low Weather Summary

 TemperatureHumidityPressure
High82 °F (Aug 27, 3:50 PM)100% (Aug 13, 10:50 AM)30.09 "Hg (Aug 13, 10:50 AM)
Low55 °F (Aug 17, 6:20 AM)32% (Aug 14, 5:20 PM)29.68 "Hg (Aug 13, 9:20 AM)
Average69 °F78%29.91 "Hg
* Reported Aug 13 12:20 AM — Aug 28 12:50 AM, Milan, Weather by CustomWeather, © 2014

Note: Actual official high and low records may vary slightly from our data, if they occured in-between our weather recording intervals... More about our weather records

Advertising

Milan weather history for previous 24 hours

 ConditionsComfort  
Time TempWeatherWind HumidityBarometerVisibility
12:50 AM
Aug 28
68 °FClear.3 mph88%29.89 "Hg10 mi
12:20 AM68 °FClear.1 mph88%29.89 "Hg10 mi
11:50 PM
Aug 27
70 °FClear.3 mph83%29.89 "Hg10 mi
11:20 PM70 °FClear.5 mph83%29.89 "Hg10 mi
10:50 PM70 °FPassing clouds.2 mph88%29.89 "HgN/A
10:20 PM70 °FPassing clouds.2 mph83%29.86 "HgN/A
9:50 PM72 °FPassing clouds.3 mph83%29.86 "HgN/A
9:20 PM72 °FClear.3 mph78%29.86 "Hg10 mi
8:50 PM73 °FSunny.2 mph74%29.83 "Hg10 mi
7:50 PM79 °FPassing clouds.5 mph61%29.83 "HgN/A
7:20 PM81 °FPassing clouds.6 mph58%29.80 "HgN/A
6:50 PM82 °FPassing clouds.6 mph55%29.80 "HgN/A
6:20 PM82 °FPassing clouds.6 mph55%29.80 "HgN/A
5:50 PM82 °FPassing clouds.7 mph55%29.80 "HgN/A
4:20 PM82 °FPassing clouds.8 mph58%29.80 "HgN/A
3:50 PM82 °FPassing clouds.8 mph55%29.80 "HgN/A
3:20 PM81 °FPassing clouds.9 mph58%29.80 "HgN/A
2:50 PM79 °FPassing clouds.8 mph61%29.80 "HgN/A
2:20 PM79 °FPassing clouds.9 mph65%29.80 "HgN/A
1:50 PM79 °FPassing clouds.9 mph65%29.80 "HgN/A
1:20 PM79 °FPassing clouds.7 mph61%29.83 "HgN/A
12:50 PM77 °FPassing clouds.7 mph65%29.83 "HgN/A
12:20 PM77 °FPassing clouds.8 mph61%29.83 "HgN/A
11:50 AM75 °FPassing clouds.8 mph65%29.83 "HgN/A
11:20 AM75 °FPassing clouds.6 mph65%29.83 "HgN/A
10:50 AM75 °FSunny.5 mph65%29.83 "Hg10 mi
10:20 AM73 °FPassing clouds.5 mph69%29.83 "HgN/A
9:50 AM72 °FPassing clouds.5 mph73%29.83 "HgN/A
9:20 AM72 °FPassing clouds.3 mph73%29.83 "HgN/A
8:50 AM70 °FPassing clouds.3 mph78%29.83 "HgN/A
8:20 AM68 °FSunny.2 mph88%29.83 "Hg10 mi
7:50 AM66 °FPassing clouds.2 mph100%29.80 "Hg5 mi
7:20 AM64 °FPassing clouds.2 mph100%29.80 "Hg4 mi
6:50 AM64 °FFog.2 mph100%29.80 "Hg3 mi
6:20 AM66 °FPartly cloudy.1 mph100%29.80 "Hg4 mi
5:50 AM66 °FPartly cloudy.3 mph100%29.80 "Hg4 mi
5:20 AM66 °FPartly cloudy.2 mph100%29.80 "Hg4 mi
4:50 AM66 °FPartly cloudy.2 mph100%29.80 "Hg4 mi
4:20 AM66 °FPartly cloudy.2 mph100%29.80 "Hg4 mi
3:50 AM66 °FPartly cloudy.2 mph100%29.80 "Hg4 mi
3:20 AM66 °FPartly cloudy.2 mph100%29.80 "Hg4 mi
2:50 AM66 °FPartly cloudy.2 mph100%29.80 "Hg4 mi
Weather by CustomWeather, © 2014

See weather overviewHow to use our weather pages